Time,TemperatureF,DewpointF,PressureIn,WindDirection,WindDirectionDegrees,WindSpeedMPH,WindSpeedGustMPH,Humidity,HourlyPrecipIn,Conditions,Clouds,dailyrainin,SolarRadiationWatts/m^2,SoftwareType,DateUTC
2013-05-20 00:01:00,52.4,37.6,29.61,SSE,163,0.0,0.0,57,0.00,BKN,BKN,0.00,0.0,WeatherDisplay:10.37,2013-05-20 06:01:00,
2013-05-20 00:06:00,52.3,37.1,29.60,SSW,202,1.4,4.6,56,0.00,BKN,BKN,0.00,0.0,WeatherDisplay:10.37,2013-05-20 06:06:00,
2013-05-20 00:11:00,52.3,37.1,29.60,South,190,2.0,4.0,56,0.00,BKN,BKN,0.00,0.0,WeatherDisplay:10.37,2013-05-20 06:11:00,
2013-05-20 00:16:00,52.3,37.1,29.60,SSW,196,1.8,3.4,56,0.00,BKN,BKN,0.00,0.0,WeatherDisplay:10.37,2013-05-20 06:16:00,
2013-05-20 00:21:00,52.2,37.0,29.60,SW,221,2.5,3.4,56,0.00,BKN,BKN,0.00,0.0,WeatherDisplay:10.37,2013-05-20 06:21:00,
2013-05-20 00:26:00,52.2,37.0,29.60,SSW,200,0.4,3.0,56,0.00,BKN,BKN,0.00,0.0,WeatherDisplay:10.37,2013-05-20 06:26:00,
2013-05-20 00:31:00,52.2,37.0,29.60,SW,221,0.5,2.3,56,0.00,BKN,BKN,0.00,0.0,WeatherDisplay:10.37,2013-05-20 06:31:00,
2013-05-20 00:36:00,52.1,37.3,29.60,SW,231,1.8,3.4,57,0.00,BKN,BKN,0.00,0.0,WeatherDisplay:10.37,2013-05-20 06:36:00,
2013-05-20 00:41:00,51.9,37.1,29.60,SW,230,0.5,2.3,57,0.00,BKN,BKN,0.00,0.0,WeatherDisplay:10.37,2013-05-20 06:41:00,
2013-05-20 00:46:00,51.8,36.6,29.60,SW,227,1.8,5.0,56,0.00,BKN,BKN,0.00,0.0,WeatherDisplay:10.37,2013-05-20 06:46:00,
2013-05-20 00:51:00,51.6,36.9,29.60,SW,226,0.2,1.1,57,0.00,BKN,BKN,0.00,0.0,WeatherDisplay:10.37,2013-05-20 06:51:00,
2013-05-20 00:56:00,51.5,36.8,29.60,SW,226,0.9,2.3,57,0.00,BKN,BKN,0.00,0.0,WeatherDisplay:10.37,2013-05-20 06:56:00,
2013-05-20 01:01:00,51.4,36.2,29.61,SSW,201,0.1,2.3,56,0.00,BKN,BKN,0.00,0.0,WeatherDisplay:10.37,2013-05-20 07:01:00,
2013-05-20 01:06:00,51.3,36.1,29.60,SSW,201,0.3,2.3,56,0.00,BKN,BKN,0.00,0.0,WeatherDisplay:10.37,2013-05-20 07:06:00,
2013-05-20 01:11:00,51.2,36.5,29.60,SSW,201,0.0,0.0,57,0.00,BKN,BKN,0.00,0.0,WeatherDisplay:10.37,2013-05-20 07:11:00,
2013-05-20 01:16:00,51.1,36.4,29.60,SSW,200,0.0,0.0,57,0.00,BKN,BKN,0.00,0.0,WeatherDisplay:10.37,2013-05-20 07:16:00,
2013-05-20 01:21:00,51.0,36.3,29.60,SSW,200,0.4,2.3,57,0.00,BKN,BKN,0.00,0.0,WeatherDisplay:10.37,2013-05-20 07:21:00,
2013-05-20 01:26:00,50.9,36.6,29.60,SSW,200,2.8,3.4,58,0.00,BKN,BKN,0.00,0.0,WeatherDisplay:10.37,2013-05-20 07:26:00,
2013-05-20 01:31:00,50.8,37.0,29.60,SSW,201,0.0,1.1,59,0.00,BKN,BKN,0.00,0.0,WeatherDisplay:10.37,2013-05-20 07:31:00,
2013-05-20 01:36:00,50.5,36.7,29.60,SSW,201,2.0,3.4,59,0.00,BKN,BKN,0.00,0.0,WeatherDisplay:10.37,2013-05-20 07:36:00,
2013-05-20 01:41:00,50.3,36.9,29.61,SSW,201,0.2,3.4,60,0.00,BKN,BKN,0.00,0.0,WeatherDisplay:10.37,2013-05-20 07:41:00,
2013-05-20 01:46:00,50.1,37.2,29.61,SSW,200,0.2,1.1,61,0.00,BKN,BKN,0.00,0.0,WeatherDisplay:10.37,2013-05-20 07:46:00,
2013-05-20 01:51:00,49.9,37.0,29.61,SSW,200,0.4,2.3,61,0.00,BKN,BKN,0.00,0.0,WeatherDisplay:10.37,2013-05-20 07:51:00,
2013-05-20 01:56:00,49.8,36.9,29.61,SSW,200,0.5,2.3,61,0.00,BKN,BKN,0.00,0.0,WeatherDisplay:10.37,2013-05-20 07:56:00,
2013-05-20 02:01:00,49.6,36.7,29.61,SSW,201,0.5,1.1,61,0.00,BKN,BKN,0.00,0.0,WeatherDisplay:10.37,2013-05-20 08:01:00,
2013-05-20 02:06:00,49.5,36.6,29.60,SSW,201,1.7,2.3,61,0.00,BKN,BKN,0.00,0.0,WeatherDisplay:10.37,2013-05-20 08:06:00,
2013-05-20 02:11:00,49.3,36.4,29.61,SSW,201,0.0,0.0,61,0.00,BKN,BKN,0.00,0.0,WeatherDisplay:10.37,2013-05-20 08:11:00,
2013-05-20 02:16:00,49.2,36.3,29.61,SSW,200,0.3,3.4,61,0.00,BKN,BKN,0.00,0.0,WeatherDisplay:10.37,2013-05-20 08:16:00,
2013-05-20 02:21:00,49.1,36.6,29.61,SSW,201,0.5,2.3,62,0.00,BKN,BKN,0.00,0.0,WeatherDisplay:10.37,2013-05-20 08:21:00,
2013-05-20 02:26:00,49.0,36.5,29.61,SSW,201,1.9,3.4,62,0.00,BKN,BKN,0.00,0.0,WeatherDisplay:10.37,2013-05-20 08:26:00,
2013-05-20 02:31:00,48.9,36.9,29.61,SSW,200,2.0,3.4,63,0.00,BKN,BKN,0.00,0.0,WeatherDisplay:10.37,2013-05-20 08:31:00,
2013-05-20 02:36:00,48.7,37.1,29.61,SSW,194,1.3,3.4,64,0.00,BKN,BKN,0.00,0.0,WeatherDisplay:10.37,2013-05-20 08:36:00,
2013-05-20 02:41:00,48.6,37.0,29.62,SSW,194,0.1,3.4,64,0.00,BKN,BKN,0.00,0.0,WeatherDisplay:10.37,2013-05-20 08:41:00,
2013-05-20 02:46:00,48.5,36.9,29.62,SSW,194,0.2,2.3,64,0.00,BKN,BKN,0.00,0.0,WeatherDisplay:10.37,2013-05-20 08:46:00,
2013-05-20 02:51:00,48.4,37.2,29.62,SSE,151,1.9,3.4,65,0.00,BKN,BKN,0.00,0.0,WeatherDisplay:10.37,2013-05-20 08:51:00,
2013-05-20 02:56:00,48.3,37.1,29.62,SE,134,0.3,2.3,65,0.00,BKN,BKN,0.00,0.0,WeatherDisplay:10.37,2013-05-20 08:56:00,
2013-05-20 03:01:00,48.2,37.0,29.62,ESE,110,1.4,3.4,65,0.00,OVC,OVC,0.00,0.0,WeatherDisplay:10.37,2013-05-20 09:01:00,
2013-05-20 03:06:00,48.2,36.6,29.63,ESE,110,0.2,2.3,64,0.00,OVC,OVC,0.00,0.0,WeatherDisplay:10.37,2013-05-20 09:06:00,
2013-05-20 03:11:00,48.2,36.6,29.63,ESE,110,0.3,2.3,64,0.00,OVC,OVC,0.00,0.0,WeatherDisplay:10.37,2013-05-20 09:11:00,
2013-05-20 03:16:00,48.2,36.2,29.64,ESE,108,1.6,3.4,63,0.00,OVC,OVC,0.00,0.0,WeatherDisplay:10.37,2013-05-20 09:16:00,
2013-05-20 03:21:00,48.2,35.8,29.64,ESE,108,0.8,3.4,62,0.00,OVC,OVC,0.00,0.0,WeatherDisplay:10.37,2013-05-20 09:21:00,
2013-05-20 03:26:00,48.3,35.9,29.64,ESE,108,0.8,2.3,62,0.00,OVC,OVC,0.00,0.0,WeatherDisplay:10.37,2013-05-20 09:26:00,
2013-05-20 03:31:00,48.5,35.7,29.64,ESE,108,0.5,1.1,61,0.00,OVC,OVC,0.00,0.0,WeatherDisplay:10.37,2013-05-20 09:31:00,
2013-05-20 03:36:00,48.7,35.8,29.64,ESE,107,0.0,1.1,61,0.00,OVC,OVC,0.00,0.0,WeatherDisplay:10.37,2013-05-20 09:36:00,
2013-05-20 03:41:00,48.8,35.5,29.64,ESE,108,0.0,0.0,60,0.00,OVC,OVC,0.00,0.0,WeatherDisplay:10.37,2013-05-20 09:41:00,
2013-05-20 03:46:00,48.8,35.5,29.64,ESE,107,0.4,2.3,60,0.00,OVC,OVC,0.00,0.0,WeatherDisplay:10.37,2013-05-20 09:46:00,
2013-05-20 03:51:00,49.0,36.1,29.64,ESE,104,0.3,3.4,61,0.00,OVC,OVC,0.00,0.0,WeatherDisplay:10.37,2013-05-20 09:51:00,
2013-05-20 03:56:00,49.2,36.7,29.64,ENE,74,0.7,3.4,62,0.00,OVC,OVC,0.00,0.0,WeatherDisplay:10.37,2013-05-20 09:56:00,
2013-05-20 04:01:00,49.5,37.0,29.64,East,85,0.1,1.0,62,0.00,OVC,OVC,0.00,0.0,WeatherDisplay:10.37,2013-05-20 10:01:00,
2013-05-20 04:06:00,49.6,37.5,29.65,East,93,0.0,1.1,63,0.00,OVC,OVC,0.00,0.0,WeatherDisplay:10.37,2013-05-20 10:06:00,
2013-05-20 04:11:00,49.7,38.0,29.65,ESE,110,1.0,4.0,64,0.00,OVC,OVC,0.00,0.0,WeatherDisplay:10.37,2013-05-20 10:11:00,
2013-05-20 04:16:00,49.7,38.0,29.65,East,82,1.3,3.0,64,0.00,OVC,OVC,0.00,0.0,WeatherDisplay:10.37,2013-05-20 10:16:00,
2013-05-20 04:21:00,49.8,38.1,29.65,ENE,78,0.6,2.3,64,0.00,OVC,OVC,0.00,0.0,WeatherDisplay:10.37,2013-05-20 10:21:00,
2013-05-20 04:26:00,49.7,38.4,29.65,East,88,0.3,1.0,65,0.00,OVC,OVC,0.00,0.0,WeatherDisplay:10.37,2013-05-20 10:26:00,
2013-05-20 04:31:00,49.7,38.4,29.65,East,94,0.0,0.0,65,0.00,OVC,OVC,0.00,0.0,WeatherDisplay:10.37,2013-05-20 10:31:00,
2013-05-20 04:36:00,49.6,38.7,29.65,East,96,2.1,3.4,66,0.00,OVC,OVC,0.00,0.0,WeatherDisplay:10.37,2013-05-20 10:36:00,
2013-05-20 04:41:00,49.5,39.0,29.66,East,86,1.6,5.8,67,0.00,OVC,OVC,0.00,0.0,WeatherDisplay:10.37,2013-05-20 10:41:00,
2013-05-20 04:46:00,49.5,39.0,29.66,NE,53,0.3,2.3,67,0.00,OVC,OVC,0.00,0.0,WeatherDisplay:10.37,2013-05-20 10:46:00,
2013-05-20 04:51:00,49.4,39.3,29.66,ENE,71,1.7,3.4,68,0.00,OVC,OVC,0.00,0.0,WeatherDisplay:10.37,2013-05-20 10:51:00,
2013-05-20 04:56:00,49.2,39.1,29.66,East,87,0.0,2.3,68,0.00,OVC,OVC,0.00,0.0,WeatherDisplay:10.37,2013-05-20 10:56:00,
2013-05-20 05:01:00,49.2,39.5,29.66,East,87,1.4,3.4,69,0.00,OVC,OVC,0.00,0.0,WeatherDisplay:10.37,2013-05-20 11:01:00,
2013-05-20 05:06:00,49.2,39.5,29.67,East,86,0.0,2.3,69,0.00,OVC,OVC,0.00,0.0,WeatherDisplay:10.37,2013-05-20 11:06:00,
2013-05-20 05:11:00,49.0,39.6,29.67,East,86,1.0,2.3,70,0.00,OVC,OVC,0.00,0.0,WeatherDisplay:10.37,2013-05-20 11:11:00,
2013-05-20 05:16:00,48.9,39.9,29.68,East,86,0.0,1.1,71,0.00,OVC,OVC,0.00,0.0,WeatherDisplay:10.37,2013-05-20 11:16:00,
2013-05-20 05:21:00,48.8,39.8,29.68,East,86,0.9,3.4,71,0.00,OVC,OVC,0.00,0.0,WeatherDisplay:10.37,2013-05-20 11:21:00,
2013-05-20 05:26:00,48.8,40.2,29.68,East,86,0.0,1.1,72,0.00,OVC,OVC,0.00,0.0,WeatherDisplay:10.37,2013-05-20 11:26:00,
2013-05-20 05:31:00,48.7,40.1,29.68,East,83,0.2,3.0,72,0.00,OVC,OVC,0.00,0.0,WeatherDisplay:10.37,2013-05-20 11:31:00,
2013-05-20 05:36:00,48.6,40.0,29.68,East,82,0.1,0.0,72,0.00,OVC,OVC,0.00,0.0,WeatherDisplay:10.37,2013-05-20 11:36:00,
2013-05-20 05:41:00,48.6,40.3,29.68,East,101,1.0,4.0,73,0.00,OVC,OVC,0.00,0.0,WeatherDisplay:10.37,2013-05-20 11:41:00,
2013-05-20 05:46:00,48.5,40.6,29.68,East,98,0.7,2.3,74,0.00,OVC,OVC,0.00,0.0,WeatherDisplay:10.37,2013-05-20 11:46:00,
2013-05-20 05:51:00,48.5,40.6,29.68,East,98,0.5,1.1,74,0.00,OVC,OVC,0.00,0.0,WeatherDisplay:10.37,2013-05-20 11:51:00,
2013-05-20 05:56:00,48.5,40.6,29.68,East,98,0.9,2.3,74,0.00,OVC,OVC,0.00,0.0,WeatherDisplay:10.37,2013-05-20 11:56:00,
2013-05-20 06:01:00,48.4,40.8,29.69,East,97,0.4,1.0,75,0.00,-RA,-RA,0.00,0.0,WeatherDisplay:10.37,2013-05-20 12:01:00,
2013-05-20 06:06:00,48.4,40.8,29.70,East,96,0.0,0.0,75,0.00,-RA,-RA,0.00,5.0,WeatherDisplay:10.37,2013-05-20 12:06:00,
2013-05-20 06:11:00,48.3,41.1,29.70,East,97,0.4,2.0,76,0.00,-RA,-RA,0.00,9.0,WeatherDisplay:10.37,2013-05-20 12:11:00,
2013-05-20 06:16:00,48.3,41.1,29.70,East,97,0.0,0.0,76,0.00,-RA,-RA,0.00,11.0,WeatherDisplay:10.37,2013-05-20 12:16:00,
2013-05-20 06:21:00,48.3,41.4,29.71,East,97,0.0,0.0,77,0.00,-RA,-RA,0.00,12.0,WeatherDisplay:10.37,2013-05-20 12:21:00,
2013-05-20 06:26:00,48.2,41.3,29.71,East,97,0.1,1.1,77,0.00,-RA,-RA,0.00,12.0,WeatherDisplay:10.37,2013-05-20 12:26:00,
2013-05-20 06:31:00,48.2,41.3,29.72,East,97,0.3,1.0,77,0.00,-RA,-RA,0.00,12.0,WeatherDisplay:10.37,2013-05-20 12:31:00,
2013-05-20 06:36:00,48.2,41.7,29.72,East,96,0.0,0.0,78,0.00,-RA,-RA,0.00,16.0,WeatherDisplay:10.37,2013-05-20 12:36:00,
2013-05-20 06:41:00,48.2,41.7,29.72,East,97,0.2,1.1,78,0.00,-RA,-RA,0.00,19.0,WeatherDisplay:10.37,2013-05-20 12:41:00,
2013-05-20 06:46:00,48.2,42.0,29.72,East,97,0.0,0.0,79,0.00,-RA,-RA,0.00,21.0,WeatherDisplay:10.37,2013-05-20 12:46:00,
2013-05-20 06:51:00,48.2,42.0,29.72,East,97,0.0,3.4,79,0.00,-RA,-RA,0.00,21.0,WeatherDisplay:10.37,2013-05-20 12:51:00,
2013-05-20 06:56:00,48.1,42.2,29.72,East,97,0.2,2.3,80,0.00,-RA,-RA,0.00,25.0,WeatherDisplay:10.37,2013-05-20 12:56:00,
2013-05-20 07:01:00,48.0,42.1,29.73,East,96,0.0,0.0,80,0.00,-RA,-RA,0.01,25.0,WeatherDisplay:10.37,2013-05-20 13:01:00,
2013-05-20 07:06:00,48.0,42.1,29.77,East,96,0.1,1.0,80,0.01,-RA,-RA,0.01,26.0,WeatherDisplay:10.37,2013-05-20 13:06:00,
2013-05-20 07:11:00,47.9,42.3,29.77,East,98,0.4,2.3,81,0.01,-RA,-RA,0.01,30.0,WeatherDisplay:10.37,2013-05-20 13:11:00,
2013-05-20 07:16:00,47.8,42.3,29.77,East,97,0.0,0.0,81,0.01,-RA,-RA,0.01,37.0,WeatherDisplay:10.37,2013-05-20 13:16:00,
2013-05-20 07:21:00,47.7,42.2,29.77,East,96,0.0,0.0,81,0.02,-RA,-RA,0.02,46.0,WeatherDisplay:10.37,2013-05-20 13:21:00,
2013-05-20 07:26:00,47.6,42.4,29.77,East,97,0.0,0.0,82,0.02,-RA,-RA,0.02,56.0,WeatherDisplay:10.37,2013-05-20 13:26:00,
2013-05-20 07:31:00,47.6,42.4,29.77,East,97,0.0,0.0,82,0.02,-RA,-RA,0.02,63.0,WeatherDisplay:10.37,2013-05-20 13:31:00,
2013-05-20 07:36:00,47.6,42.7,29.77,East,96,0.0,0.0,83,0.02,-RA,-RA,0.02,74.0,WeatherDisplay:10.37,2013-05-20 13:36:00,
2013-05-20 07:41:00,47.6,42.7,29.77,East,97,0.0,0.0,83,0.02,-RA,-RA,0.02,84.0,WeatherDisplay:10.37,2013-05-20 13:41:00,
2013-05-20 07:46:00,47.6,42.7,29.77,East,97,0.0,1.1,83,0.02,-RA,-RA,0.02,90.0,WeatherDisplay:10.37,2013-05-20 13:46:00,
2013-05-20 07:51:00,47.6,43.0,29.77,East,97,0.4,2.0,84,0.03,-RA,-RA,0.03,93.0,WeatherDisplay:10.37,2013-05-20 13:51:00,
2013-05-20 07:56:00,47.6,43.0,29.77,East,97,0.0,0.0,84,0.03,-RA,-RA,0.03,105.0,WeatherDisplay:10.37,2013-05-20 13:56:00,
2013-05-20 08:01:00,47.6,43.0,29.77,East,97,0.0,0.0,84,0.03,BKN,BKN,0.04,114.0,WeatherDisplay:10.37,2013-05-20 14:01:00,
2013-05-20 08:06:00,47.7,43.1,29.79,East,98,2.4,3.4,84,0.03,RA,RA,0.04,114.0,WeatherDisplay:10.37,2013-05-20 14:06:00,
2013-05-20 08:11:00,47.8,43.5,29.78,East,98,0.8,2.3,85,0.03,RA,RA,0.04,116.0,WeatherDisplay:10.37,2013-05-20 14:11:00,
2013-05-20 08:16:00,47.9,43.6,29.78,East,98,0.3,2.3,85,0.04,RA,RA,0.05,121.0,WeatherDisplay:10.37,2013-05-20 14:16:00,
2013-05-20 08:21:00,48.0,43.7,29.78,ESE,121,1.3,3.4,85,0.03,RA,RA,0.05,128.0,WeatherDisplay:10.37,2013-05-20 14:21:00,
2013-05-20 08:26:00,48.1,43.8,29.78,SE,132,2.2,3.4,85,0.03,BKN,BKN,0.05,151.0,WeatherDisplay:10.37,2013-05-20 14:26:00,
2013-05-20 08:31:00,48.2,43.9,29.77,South,187,3.6,5.0,85,0.03,BKN,BKN,0.05,192.0,WeatherDisplay:10.37,2013-05-20 14:31:00,
2013-05-20 08:36:00,48.4,44.4,29.77,SW,223,2.0,6.9,86,0.03,BKN,BKN,0.05,227.0,WeatherDisplay:10.37,2013-05-20 14:36:00,
2013-05-20 08:41:00,48.7,44.7,29.76,SSW,205,3.6,8.1,86,0.03,BKN,BKN,0.05,258.0,WeatherDisplay:10.37,2013-05-20 14:41:00,
2013-05-20 08:46:00,48.8,44.8,29.76,SSW,212,2.3,4.6,86,0.03,BKN,BKN,0.05,302.0,WeatherDisplay:10.37,2013-05-20 14:46:00,
2013-05-20 08:51:00,49.4,45.7,29.77,SSW,213,4.1,6.9,87,0.02,BKN,BKN,0.05,531.0,WeatherDisplay:10.37,2013-05-20 14:51:00,
2013-05-20 08:56:00,49.8,45.8,29.75,SSW,199,2.3,6.0,86,0.02,BKN,BKN,0.05,541.0,WeatherDisplay:10.37,2013-05-20 14:56:00,
2013-05-20 09:01:00,49.9,45.6,29.75,South,187,4.9,11.5,85,0.02,BKN,BKN,0.05,548.0,WeatherDisplay:10.37,2013-05-20 15:01:00,
2013-05-20 09:06:00,50.4,46.1,29.76,SW,219,2.6,4.6,85,0.01,BKN,BKN,0.05,585.0,WeatherDisplay:10.37,2013-05-20 15:06:00,
2013-05-20 09:11:00,51.0,46.3,29.75,SSW,196,5.7,10.3,84,0.01,BKN,BKN,0.05,599.0,WeatherDisplay:10.37,2013-05-20 15:11:00,
2013-05-20 09:16:00,51.2,46.2,29.74,SW,226,2.8,6.9,83,0.00,BKN,BKN,0.05,635.0,WeatherDisplay:10.37,2013-05-20 15:16:00,
2013-05-20 09:21:00,51.9,46.3,29.75,SW,227,5.7,11.5,81,0.00,BKN,BKN,0.05,601.0,WeatherDisplay:10.37,2013-05-20 15:21:00,
2013-05-20 09:26:00,52.1,46.1,29.74,WSW,237,4.4,12.0,80,0.00,BKN,BKN,0.05,612.0,WeatherDisplay:10.37,2013-05-20 15:26:00,
2013-05-20 09:31:00,52.2,45.5,29.74,SSW,207,3.9,6.9,78,0.00,BKN,BKN,0.05,501.0,WeatherDisplay:10.37,2013-05-20 15:31:00,
2013-05-20 09:36:00,52.4,45.4,29.74,SSW,192,4.3,6.9,77,0.00,BKN,BKN,0.05,677.0,WeatherDisplay:10.37,2013-05-20 15:36:00,
2013-05-20 09:41:00,53.2,45.8,29.73,SSE,154,2.4,4.6,76,0.00,BKN,BKN,0.05,847.0,WeatherDisplay:10.37,2013-05-20 15:41:00,
2013-05-20 09:46:00,53.8,45.3,29.73,WNW,285,4.1,9.2,73,0.00,BKN,BKN,0.05,772.0,WeatherDisplay:10.37,2013-05-20 15:46:00,
2013-05-20 09:51:00,54.3,44.7,29.72,South,188,3.2,6.9,70,0.00,BKN,BKN,0.05,791.0,WeatherDisplay:10.37,2013-05-20 15:51:00,
2013-05-20 09:56:00,54.8,44.8,29.71,SW,223,5.5,11.5,69,0.00,BKN,BKN,0.05,939.0,WeatherDisplay:10.37,2013-05-20 15:56:00,
2013-05-20 10:01:00,55.2,44.4,29.72,WSW,244,1.8,11.5,67,0.00,BKN,BKN,0.05,628.0,WeatherDisplay:10.37,2013-05-20 16:01:00,
2013-05-20 10:06:00,55.7,44.5,29.71,SW,233,5.7,10.3,66,0.00,BKN,BKN,0.05,860.0,WeatherDisplay:10.37,2013-05-20 16:06:00,
2013-05-20 10:11:00,55.9,43.5,29.70,SSE,161,4.7,6.9,63,0.00,BKN,BKN,0.05,868.0,WeatherDisplay:10.37,2013-05-20 16:11:00,
2013-05-20 10:16:00,56.6,43.7,29.70,SE,140,2.9,6.9,62,0.00,BKN,BKN,0.05,898.0,WeatherDisplay:10.37,2013-05-20 16:16:00,
2013-05-20 10:21:00,57.0,43.7,29.70,SSW,193,2.7,11.5,61,0.00,BKN,BKN,0.05,891.0,WeatherDisplay:10.37,2013-05-20 16:21:00,
2013-05-20 10:26:00,57.5,42.8,29.70,SW,222,6.0,11.5,58,0.00,BKN,BKN,0.05,860.0,WeatherDisplay:10.37,2013-05-20 16:26:00,
2013-05-20 10:31:00,57.8,42.2,29.68,South,191,1.7,4.6,56,0.00,BKN,BKN,0.05,865.0,WeatherDisplay:10.37,2013-05-20 16:31:00,
2013-05-20 10:36:00,58.4,43.2,29.68,South,188,4.2,5.8,57,0.00,BKN,BKN,0.05,877.0,WeatherDisplay:10.37,2013-05-20 16:36:00,
2013-05-20 10:41:00,59.0,42.8,29.68,SE,131,5.7,10.3,55,0.00,BKN,BKN,0.05,886.0,WeatherDisplay:10.37,2013-05-20 16:41:00,
2013-05-20 10:46:00,59.8,43.1,29.67,SW,214,4.6,10.3,54,0.00,BKN,BKN,0.05,900.0,WeatherDisplay:10.37,2013-05-20 16:46:00,
2013-05-20 10:51:00,60.0,41.8,29.67,SSW,207,2.8,5.8,51,0.00,BKN,BKN,0.05,911.0,WeatherDisplay:10.37,2013-05-20 16:51:00,
2013-05-20 10:56:00,60.4,40.6,29.67,South,180,1.1,2.3,48,0.00,BKN,BKN,0.05,921.0,WeatherDisplay:10.37,2013-05-20 16:56:00,
2013-05-20 11:01:00,61.2,39.1,29.66,South,182,3.8,4.6,44,0.00,SCT,SCT,0.05,947.0,WeatherDisplay:10.37,2013-05-20 17:01:00,
2013-05-20 11:06:00,61.4,38.7,29.68,SSE,161,5.1,6.9,43,0.00,SCT,SCT,0.05,1074.0,WeatherDisplay:10.37,2013-05-20 17:06:00,
2013-05-20 11:11:00,61.8,37.8,29.67,SE,125,4.0,6.9,41,0.00,SCT,SCT,0.05,1146.0,WeatherDisplay:10.37,2013-05-20 17:11:00,
2013-05-20 11:16:00,62.2,38.8,29.66,SSE,151,1.4,7.0,42,0.00,SCT,SCT,0.05,471.0,WeatherDisplay:10.37,2013-05-20 17:16:00,
2013-05-20 11:21:00,62.4,39.0,29.67,SE,134,0.0,0.0,42,0.00,SCT,SCT,0.05,359.0,WeatherDisplay:10.37,2013-05-20 17:21:00,
2013-05-20 11:26:00,62.7,39.3,29.67,SE,134,0.0,0.0,42,0.00,SCT,SCT,0.05,295.0,WeatherDisplay:10.37,2013-05-20 17:26:00,
2013-05-20 11:31:00,62.5,39.7,29.67,WNW,284,3.5,3.5,43,0.00,SCT,SCT,0.05,230.0,WeatherDisplay:10.37,2013-05-20 17:31:00,
2013-05-20 11:36:00,61.7,41.8,29.66,NE,52,1.0,7.0,48,0.00,SCT,SCT,0.05,341.0,WeatherDisplay:10.37,2013-05-20 17:36:00,
2013-05-20 11:41:00,61.0,38.3,29.67,North,351,0.8,3.4,43,0.00,SCT,SCT,0.05,976.0,WeatherDisplay:10.37,2013-05-20 17:41:00,
2013-05-20 11:46:00,61.6,38.9,29.67,NNW,338,1.3,5.0,43,0.00,SCT,SCT,0.05,795.0,WeatherDisplay:10.37,2013-05-20 17:46:00,
2013-05-20 11:51:00,62.3,38.3,29.67,NW,311,2.2,3.4,41,0.00,SCT,SCT,0.05,1086.0,WeatherDisplay:10.37,2013-05-20 17:51:00,
2013-05-20 11:56:00,63.2,39.7,29.67,NNE,26,1.1,4.0,42,0.00,SCT,SCT,0.05,548.0,WeatherDisplay:10.37,2013-05-20 17:56:00,
2013-05-20 12:01:00,63.3,37.9,29.67,NE,40,4.9,11.5,39,0.00,BKN,BKN,0.05,629.0,WeatherDisplay:10.37,2013-05-20 18:01:00,
2013-05-20 12:06:00,63.2,39.1,29.67,North,360,4.2,9.2,41,0.00,BKN,BKN,0.05,487.0,WeatherDisplay:10.37,2013-05-20 18:06:00,
2013-05-20 12:11:00,62.7,40.5,29.67,NE,44,5.3,11.0,44,0.00,BKN,BKN,0.05,338.0,WeatherDisplay:10.37,2013-05-20 18:11:00,
2013-05-20 12:16:00,61.7,40.1,29.68,NNE,19,3.3,8.0,45,0.00,BKN,BKN,0.05,229.0,WeatherDisplay:10.37,2013-05-20 18:16:00,
2013-05-20 12:21:00,60.9,38.8,29.69,ENE,60,6.2,13.8,44,0.00,BKN,BKN,0.05,186.0,WeatherDisplay:10.37,2013-05-20 18:21:00,
2013-05-20 12:26:00,60.4,38.9,29.69,NE,49,4.0,6.9,45,0.00,BKN,BKN,0.05,213.0,WeatherDisplay:10.37,2013-05-20 18:26:00,
2013-05-20 12:31:00,60.4,41.7,29.70,NE,44,1.8,3.4,50,0.00,BKN,BKN,0.05,313.0,WeatherDisplay:10.37,2013-05-20 18:31:00,
2013-05-20 12:36:00,60.5,39.0,29.70,NNW,339,0.1,3.4,45,0.00,BKN,BKN,0.05,480.0,WeatherDisplay:10.37,2013-05-20 18:36:00,
2013-05-20 12:41:00,60.9,38.8,29.69,NNW,331,3.3,5.8,44,0.00,BKN,BKN,0.05,686.0,WeatherDisplay:10.37,2013-05-20 18:41:00,
2013-05-20 12:46:00,61.4,38.7,29.69,NNW,342,4.5,10.3,43,0.00,BKN,BKN,0.05,524.0,WeatherDisplay:10.37,2013-05-20 18:46:00,
2013-05-20 12:51:00,61.5,38.2,29.69,WNW,291,5.7,10.3,42,0.00,BKN,BKN,0.05,431.0,WeatherDisplay:10.37,2013-05-20 18:51:00,
2013-05-20 12:56:00,61.6,38.9,29.70,NNW,334,5.6,9.2,43,0.00,BKN,BKN,0.05,643.0,WeatherDisplay:10.37,2013-05-20 18:56:00,
2013-05-20 13:01:00,61.8,39.1,29.70,NNW,342,3.0,4.6,43,0.00,BKN,BKN,0.05,564.0,WeatherDisplay:10.37,2013-05-20 19:01:00,
2013-05-20 13:06:00,61.8,40.2,29.69,East,86,2.1,4.6,45,0.00,BKN,BKN,0.05,394.0,WeatherDisplay:10.37,2013-05-20 19:06:00,
2013-05-20 13:11:00,61.6,40.6,29.69,North,360,1.5,4.0,46,0.00,BKN,BKN,0.05,425.0,WeatherDisplay:10.37,2013-05-20 19:11:00,
2013-05-20 13:16:00,61.1,40.1,29.71,ENE,72,1.8,6.9,46,0.00,BKN,BKN,0.05,529.0,WeatherDisplay:10.37,2013-05-20 19:16:00,
2013-05-20 13:21:00,61.4,39.9,29.71,NNE,13,2.5,4.6,45,0.00,BKN,BKN,0.05,411.0,WeatherDisplay:10.37,2013-05-20 19:21:00,
2013-05-20 13:26:00,61.5,39.9,29.70,North,355,0.4,2.0,45,0.00,BKN,BKN,0.05,338.0,WeatherDisplay:10.37,2013-05-20 19:26:00,
2013-05-20 13:31:00,61.8,40.2,29.69,North,351,3.1,3.4,45,0.00,BKN,BKN,0.05,387.0,WeatherDisplay:10.37,2013-05-20 19:31:00,
2013-05-20 13:36:00,61.8,39.6,29.70,WNW,282,2.6,3.4,44,0.00,BKN,BKN,0.05,441.0,WeatherDisplay:10.37,2013-05-20 19:36:00,
2013-05-20 13:41:00,62.0,39.2,29.69,WNW,295,1.7,3.4,43,0.00,BKN,BKN,0.05,1164.0,WeatherDisplay:10.37,2013-05-20 19:41:00,
2013-05-20 13:46:00,62.5,39.7,29.69,NE,34,1.1,5.8,43,0.00,BKN,BKN,0.05,788.0,WeatherDisplay:10.37,2013-05-20 19:46:00,
2013-05-20 13:51:00,63.0,39.5,29.69,NNW,337,1.3,3.4,42,0.00,BKN,BKN,0.05,1118.0,WeatherDisplay:10.37,2013-05-20 19:51:00,
2013-05-20 13:56:00,63.3,39.8,29.69,SW,221,1.4,3.4,42,0.00,BKN,BKN,0.05,900.0,WeatherDisplay:10.37,2013-05-20 19:56:00,
2013-05-20 14:01:00,63.4,39.3,29.69,WNW,302,0.8,3.4,41,0.00,BKN,BKN,0.05,1220.0,WeatherDisplay:10.37,2013-05-20 20:01:00,
2013-05-20 14:06:00,64.4,40.8,29.69,NE,36,0.3,3.4,42,0.00,BKN,BKN,0.05,1216.0,WeatherDisplay:10.37,2013-05-20 20:06:00,
2013-05-20 14:11:00,65.5,41.2,29.68,NNW,341,3.0,4.6,41,0.00,BKN,BKN,0.05,914.0,WeatherDisplay:10.37,2013-05-20 20:11:00,
2013-05-20 14:16:00,65.4,40.4,29.69,West,277,1.5,4.6,40,0.00,BKN,BKN,0.05,679.0,WeatherDisplay:10.37,2013-05-20 20:16:00,
2013-05-20 14:21:00,65.2,40.9,29.68,NNE,31,2.9,4.6,41,0.00,BKN,BKN,0.05,673.0,WeatherDisplay:10.37,2013-05-20 20:21:00,
2013-05-20 14:26:00,65.5,41.8,29.67,NE,36,4.7,9.2,42,0.00,BKN,BKN,0.05,740.0,WeatherDisplay:10.37,2013-05-20 20:26:00,
2013-05-20 14:31:00,65.3,40.3,29.69,NW,309,2.8,3.4,40,0.00,BKN,BKN,0.05,410.0,WeatherDisplay:10.37,2013-05-20 20:31:00,
2013-05-20 14:36:00,65.1,40.2,29.69,WNW,302,3.1,5.8,40,0.00,BKN,BKN,0.05,327.0,WeatherDisplay:10.37,2013-05-20 20:36:00,
2013-05-20 14:41:00,64.9,40.6,29.69,NW,322,1.6,4.6,41,0.00,BKN,BKN,0.05,218.0,WeatherDisplay:10.37,2013-05-20 20:41:00,
2013-05-20 14:46:00,64.3,40.1,29.69,West,279,0.0,1.1,41,0.00,BKN,BKN,0.05,197.0,WeatherDisplay:10.37,2013-05-20 20:46:00,
2013-05-20 14:51:00,63.9,39.7,29.69,West,279,1.6,3.4,41,0.00,BKN,BKN,0.05,171.0,WeatherDisplay:10.37,2013-05-20 20:51:00,
2013-05-20 14:56:00,63.5,40.0,29.69,West,279,1.3,3.0,42,0.00,BKN,BKN,0.05,183.0,WeatherDisplay:10.37,2013-05-20 20:56:00,
2013-05-20 15:01:00,63.1,39.0,29.70,West,279,0.1,1.1,41,0.00,BKN,BKN,0.05,311.0,WeatherDisplay:10.37,2013-05-20 21:01:00,
2013-05-20 15:06:00,62.9,41.8,29.68,West,263,2.7,4.6,46,0.00,BKN,BKN,0.05,397.0,WeatherDisplay:10.37,2013-05-20 21:06:00,
2013-05-20 15:11:00,62.7,40.5,29.69,West,263,0.1,1.1,44,0.00,BKN,BKN,0.05,947.0,WeatherDisplay:10.37,2013-05-20 21:11:00,
2013-05-20 15:16:00,63.0,40.7,29.69,NNE,23,5.9,11.5,44,0.00,BKN,BKN,0.05,390.0,WeatherDisplay:10.37,2013-05-20 21:16:00,
2013-05-20 15:21:00,62.6,40.9,29.69,NNE,33,6.0,13.8,45,0.00,BKN,BKN,0.05,214.0,WeatherDisplay:10.37,2013-05-20 21:21:00,
2013-05-20 15:26:00,61.8,41.3,29.69,NE,38,6.0,15.0,47,0.00,BKN,BKN,0.05,130.0,WeatherDisplay:10.37,2013-05-20 21:26:00,
2013-05-20 15:31:00,59.1,43.4,29.72,ENE,76,8.1,13.8,56,0.01,RA,RA,0.06,169.0,WeatherDisplay:10.37,2013-05-20 21:31:00,
2013-05-20 15:36:00,56.8,44.3,29.73,ENE,76,7.8,12.6,63,0.04,RA,RA,0.09,789.0,WeatherDisplay:10.37,2013-05-20 21:36:00,
2013-05-20 15:41:00,55.3,44.9,29.73,NNE,32,5.6,9.2,68,0.04,RA,RA,0.09,373.0,WeatherDisplay:10.37,2013-05-20 21:41:00,
2013-05-20 15:46:00,54.5,45.3,29.74,NE,53,4.0,6.9,71,0.04,BKN,BKN,0.09,401.0,WeatherDisplay:10.37,2013-05-20 21:46:00,
2013-05-20 15:51:00,54.4,45.9,29.74,ENE,66,3.7,9.2,73,0.04,BKN,BKN,0.09,269.0,WeatherDisplay:10.37,2013-05-20 21:51:00,
2013-05-20 15:56:00,54.1,45.6,29.74,ENE,70,2.8,5.8,73,0.04,BKN,BKN,0.09,141.0,WeatherDisplay:10.37,2013-05-20 21:56:00,
2013-05-20 16:01:00,53.9,45.4,29.74,SE,135,2.0,6.9,73,0.04,-RA,-RA,0.09,81.0,WeatherDisplay:10.37,2013-05-20 22:01:00,
2013-05-20 16:06:00,53.8,45.3,29.75,East,90,2.6,4.6,73,0.04,-RA,-RA,0.09,54.0,WeatherDisplay:10.37,2013-05-20 22:06:00,
2013-05-20 16:11:00,53.8,45.7,29.75,NNE,16,4.1,6.9,74,0.04,-RA,-RA,0.09,42.0,WeatherDisplay:10.37,2013-05-20 22:11:00,
2013-05-20 16:16:00,53.6,45.5,29.76,NNW,333,9.0,13.8,74,0.04,-RA,-RA,0.09,26.0,WeatherDisplay:10.37,2013-05-20 22:16:00,
2013-05-20 16:21:00,53.2,44.8,29.77,North,360,2.5,5.0,73,0.04,-RA,-RA,0.09,19.0,WeatherDisplay:10.37,2013-05-20 22:21:00,
2013-05-20 16:26:00,52.9,44.5,29.79,WNW,300,5.4,10.3,73,0.04,-RA,-RA,0.09,16.0,WeatherDisplay:10.37,2013-05-20 22:26:00,
2013-05-20 16:31:00,52.8,45.1,29.79,NW,308,1.1,4.6,75,0.04,-RA,-RA,0.10,16.0,WeatherDisplay:10.37,2013-05-20 22:31:00,
2013-05-20 16:36:00,52.7,45.3,29.78,SW,224,0.1,2.3,76,0.02,-RA,-RA,0.11,25.0,WeatherDisplay:10.37,2013-05-20 22:36:00,
2013-05-20 16:41:00,52.5,45.2,29.77,ESE,102,0.4,3.4,76,0.02,-RA,-RA,0.11,42.0,WeatherDisplay:10.37,2013-05-20 22:41:00,
2013-05-20 16:46:00,52.4,45.7,29.79,NE,49,0.2,2.3,78,0.03,-RA,-RA,0.12,58.0,WeatherDisplay:10.37,2013-05-20 22:46:00,
2013-05-20 16:51:00,52.2,45.9,29.78,ENE,78,0.6,2.3,79,0.03,-RA,-RA,0.12,77.0,WeatherDisplay:10.37,2013-05-20 22:51:00,
2013-05-20 16:56:00,52.0,45.7,29.78,East,92,0.5,2.3,79,0.03,-RA,-RA,0.12,100.0,WeatherDisplay:10.37,2013-05-20 22:56:00,
2013-05-20 17:01:00,51.8,45.8,29.78,East,100,1.2,3.4,80,0.03,BKN,BKN,0.12,123.0,WeatherDisplay:10.37,2013-05-20 23:01:00,
2013-05-20 17:06:00,51.7,45.7,29.78,East,100,0.2,2.3,80,0.03,BKN,BKN,0.12,111.0,WeatherDisplay:10.37,2013-05-20 23:06:00,
2013-05-20 17:11:00,51.7,45.7,29.79,ESE,121,1.4,3.4,80,0.03,BKN,BKN,0.12,56.0,WeatherDisplay:10.37,2013-05-20 23:11:00,
2013-05-20 17:16:00,51.7,45.7,29.80,ESE,103,0.3,2.3,80,0.03,BKN,BKN,0.12,53.0,WeatherDisplay:10.37,2013-05-20 23:16:00,
2013-05-20 17:21:00,51.7,45.7,29.79,ESE,104,1.6,3.4,80,0.03,BKN,BKN,0.12,190.0,WeatherDisplay:10.37,2013-05-20 23:21:00,
2013-05-20 17:26:00,51.9,45.9,29.79,East,97,3.6,5.8,80,0.04,RA,RA,0.13,156.0,WeatherDisplay:10.37,2013-05-20 23:26:00,
2013-05-20 17:31:00,51.9,45.9,29.80,East,96,1.1,3.4,80,0.03,RA,RA,0.13,211.0,WeatherDisplay:10.37,2013-05-20 23:31:00,
2013-05-20 17:36:00,52.1,46.1,29.80,ENE,69,4.0,6.9,80,0.02,BKN,BKN,0.13,578.0,WeatherDisplay:10.37,2013-05-20 23:36:00,
2013-05-20 17:41:00,52.8,47.1,29.80,ESE,103,5.6,9.2,81,0.02,BKN,BKN,0.13,529.0,WeatherDisplay:10.37,2013-05-20 23:41:00,
2013-05-20 17:46:00,53.4,47.0,29.80,East,97,1.8,10.3,79,0.01,BKN,BKN,0.13,195.0,WeatherDisplay:10.37,2013-05-20 23:46:00,
2013-05-20 17:51:00,53.6,46.6,29.79,NE,52,3.0,6.9,77,0.01,BKN,BKN,0.13,236.0,WeatherDisplay:10.37,2013-05-20 23:51:00,
2013-05-20 17:56:00,53.6,45.5,29.79,ESE,102,3.1,5.8,74,0.01,BKN,BKN,0.13,209.0,WeatherDisplay:10.37,2013-05-20 23:56:00,
2013-05-20 18:01:00,53.6,45.5,29.79,East,94,1.6,4.6,74,0.01,BKN,BKN,0.13,413.0,WeatherDisplay:10.37,2013-05-21 00:01:00,
2013-05-20 18:06:00,53.7,45.2,29.79,East,88,4.6,10.3,73,0.01,BKN,BKN,0.13,153.0,WeatherDisplay:10.37,2013-05-21 00:06:00,
2013-05-20 18:11:00,53.7,44.9,29.79,ESE,102,3.5,6.0,72,0.01,BKN,BKN,0.13,438.0,WeatherDisplay:10.37,2013-05-21 00:11:00,
2013-05-20 18:16:00,53.7,44.9,29.80,East,99,2.5,3.4,72,0.01,BKN,BKN,0.13,462.0,WeatherDisplay:10.37,2013-05-21 00:16:00,
2013-05-20 18:21:00,54.2,45.4,29.79,East,98,1.3,4.6,72,0.01,BKN,BKN,0.13,394.0,WeatherDisplay:10.37,2013-05-21 00:21:00,
2013-05-20 18:26:00,54.4,45.2,29.80,SE,138,0.4,3.4,71,0.00,BKN,BKN,0.13,151.0,WeatherDisplay:10.37,2013-05-21 00:26:00,
2013-05-20 18:31:00,54.7,45.5,29.80,SE,138,0.0,1.1,71,0.00,BKN,BKN,0.13,137.0,WeatherDisplay:10.37,2013-05-21 00:31:00,
2013-05-20 18:36:00,54.8,45.2,29.80,SE,139,1.3,3.4,70,0.00,BKN,BKN,0.13,111.0,WeatherDisplay:10.37,2013-05-21 00:36:00,
2013-05-20 18:41:00,54.7,45.1,29.80,SE,139,2.0,3.4,70,0.00,BKN,BKN,0.13,83.0,WeatherDisplay:10.37,2013-05-21 00:41:00,
2013-05-20 18:46:00,54.5,44.9,29.80,SE,139,0.7,2.3,70,0.00,BKN,BKN,0.13,100.0,WeatherDisplay:10.37,2013-05-21 00:46:00,
2013-05-20 18:51:00,54.4,44.8,29.81,SE,126,1.7,3.4,70,0.00,BKN,BKN,0.13,81.0,WeatherDisplay:10.37,2013-05-21 00:51:00,
2013-05-20 18:56:00,54.3,44.3,29.81,NNE,32,2.3,5.0,69,0.00,BKN,BKN,0.13,53.0,WeatherDisplay:10.37,2013-05-21 00:56:00,
2013-05-20 19:01:00,54.2,43.5,29.82,NE,49,0.4,2.3,67,0.00,BKN,BKN,0.13,37.0,WeatherDisplay:10.37,2013-05-21 01:01:00,
2013-05-20 19:06:00,54.2,42.7,29.82,East,92,0.6,3.0,65,0.00,BKN,BKN,0.13,26.0,WeatherDisplay:10.37,2013-05-21 01:06:00,
2013-05-20 19:11:00,54.2,42.7,29.82,SE,126,3.3,6.9,65,0.00,BKN,BKN,0.13,21.0,WeatherDisplay:10.37,2013-05-21 01:11:00,
2013-05-20 19:16:00,54.2,42.7,29.83,East,98,0.2,1.1,65,0.00,BKN,BKN,0.13,28.0,WeatherDisplay:10.37,2013-05-21 01:16:00,
2013-05-20 19:21:00,54.1,43.0,29.83,ESE,118,1.5,4.6,66,0.01,RA,RA,0.14,30.0,WeatherDisplay:10.37,2013-05-21 01:21:00,
2013-05-20 19:26:00,53.9,43.6,29.83,ESE,118,0.5,2.0,68,0.01,RA,RA,0.14,19.0,WeatherDisplay:10.37,2013-05-21 01:26:00,
2013-05-20 19:31:00,53.7,44.1,29.83,ESE,118,0.0,0.0,70,0.01,BKN,BKN,0.14,9.0,WeatherDisplay:10.37,2013-05-21 01:31:00,
2013-05-20 19:36:00,53.6,44.0,29.83,ESE,118,0.6,2.3,70,0.01,BKN,BKN,0.14,5.0,WeatherDisplay:10.37,2013-05-21 01:36:00,
2013-05-20 19:41:00,53.4,43.9,29.84,ESE,118,0.0,1.1,70,0.01,BKN,BKN,0.14,0.0,WeatherDisplay:10.37,2013-05-21 01:41:00,
2013-05-20 19:46:00,53.3,44.1,29.85,ESE,118,0.0,0.0,71,0.01,BKN,BKN,0.14,5.0,WeatherDisplay:10.37,2013-05-21 01:46:00,
2013-05-20 19:51:00,53.1,43.2,29.85,ESE,117,0.3,3.4,69,0.01,BKN,BKN,0.14,0.0,WeatherDisplay:10.37,2013-05-21 01:51:00,
2013-05-20 19:56:00,53.0,43.1,29.86,ESE,107,2.1,4.6,69,0.01,BKN,BKN,0.14,0.0,WeatherDisplay:10.37,2013-05-21 01:56:00,
2013-05-20 20:01:00,52.7,42.0,29.86,East,84,0.0,3.4,67,0.01,BKN,BKN,0.14,0.0,WeatherDisplay:10.37,2013-05-21 02:01:00,
2013-05-20 20:06:00,52.6,41.6,29.84,ESE,106,1.9,5.8,66,0.01,BKN,BKN,0.14,0.0,WeatherDisplay:10.37,2013-05-21 02:06:00,
2013-05-20 20:11:00,52.6,41.9,29.85,ESE,105,0.8,3.4,67,0.01,BKN,BKN,0.14,0.0,WeatherDisplay:10.37,2013-05-21 02:11:00,
2013-05-20 20:16:00,52.4,41.8,29.85,ESE,105,1.0,4.0,67,0.01,BKN,BKN,0.14,0.0,WeatherDisplay:10.37,2013-05-21 02:16:00,
2013-05-20 20:21:00,52.3,41.7,29.85,ESE,106,1.4,3.4,67,0.00,BKN,BKN,0.14,0.0,WeatherDisplay:10.37,2013-05-21 02:21:00,
2013-05-20 20:26:00,52.2,41.6,29.84,SE,138,0.8,4.0,67,0.00,BKN,BKN,0.14,0.0,WeatherDisplay:10.37,2013-05-21 02:26:00,
2013-05-20 20:31:00,52.1,41.5,29.85,SE,138,0.2,1.0,67,0.00,BKN,BKN,0.14,0.0,WeatherDisplay:10.37,2013-05-21 02:31:00,
2013-05-20 20:36:00,51.9,41.3,29.85,SE,138,1.8,3.4,67,0.00,BKN,BKN,0.14,0.0,WeatherDisplay:10.37,2013-05-21 02:36:00,
2013-05-20 20:41:00,51.8,41.6,29.85,SE,138,0.7,2.3,68,0.00,BKN,BKN,0.14,0.0,WeatherDisplay:10.37,2013-05-21 02:41:00,
2013-05-20 20:46:00,51.7,41.5,29.86,SE,138,1.1,2.3,68,0.00,BKN,BKN,0.14,0.0,WeatherDisplay:10.37,2013-05-21 02:46:00,
2013-05-20 20:51:00,51.6,41.4,29.85,SE,137,1.6,2.3,68,0.00,BKN,BKN,0.14,0.0,WeatherDisplay:10.37,2013-05-21 02:51:00,
2013-05-20 20:56:00,51.6,41.4,29.86,SE,138,1.0,3.4,68,0.00,BKN,BKN,0.14,0.0,WeatherDisplay:10.37,2013-05-21 02:56:00,
2013-05-20 21:01:00,51.5,41.7,29.86,SE,138,0.5,3.4,69,0.00,-RA,-RA,0.14,0.0,WeatherDisplay:10.37,2013-05-21 03:01:00,
2013-05-20 21:06:00,51.5,41.7,29.84,SE,138,0.4,2.3,69,0.00,-RA,-RA,0.14,0.0,WeatherDisplay:10.37,2013-05-21 03:06:00,
2013-05-20 21:11:00,51.5,41.7,29.84,SE,138,0.4,2.3,69,0.00,-RA,-RA,0.14,0.0,WeatherDisplay:10.37,2013-05-21 03:11:00,
2013-05-20 21:16:00,51.4,41.2,29.84,SE,137,0.0,0.0,68,0.00,-RA,-RA,0.14,0.0,WeatherDisplay:10.37,2013-05-21 03:16:00,
2013-05-20 21:21:00,51.3,41.1,29.84,SE,137,0.3,2.0,68,0.00,-RA,-RA,0.14,0.0,WeatherDisplay:10.37,2013-05-21 03:21:00,
2013-05-20 21:26:00,51.2,41.0,29.85,SE,138,1.3,3.4,68,0.00,-RA,-RA,0.14,0.0,WeatherDisplay:10.37,2013-05-21 03:26:00,
2013-05-20 21:31:00,51.2,41.0,29.85,SE,138,1.6,3.4,68,0.00,-RA,-RA,0.14,0.0,WeatherDisplay:10.37,2013-05-21 03:31:00,
2013-05-20 21:36:00,51.2,41.0,29.85,SE,140,3.4,4.6,68,0.00,-RA,-RA,0.14,0.0,WeatherDisplay:10.37,2013-05-21 03:36:00,
2013-05-20 21:41:00,51.2,41.4,29.85,SE,140,0.8,3.4,69,0.00,-RA,-RA,0.14,0.0,WeatherDisplay:10.37,2013-05-21 03:41:00,
2013-05-20 21:46:00,51.2,41.4,29.85,SE,140,0.2,2.0,69,0.00,-RA,-RA,0.14,0.0,WeatherDisplay:10.37,2013-05-21 03:46:00,
2013-05-20 21:51:00,51.2,41.4,29.85,SE,140,0.0,1.1,69,0.00,-RA,-RA,0.14,0.0,WeatherDisplay:10.37,2013-05-21 03:51:00,
2013-05-20 21:56:00,51.1,41.3,29.85,SE,141,0.1,2.0,69,0.00,-RA,-RA,0.14,0.0,WeatherDisplay:10.37,2013-05-21 03:56:00,
2013-05-20 22:01:00,51.1,42.4,29.86,SE,141,0.0,0.0,72,0.00,BKN,BKN,0.14,0.0,WeatherDisplay:10.37,2013-05-21 04:01:00,
2013-05-20 22:06:00,51.0,41.6,29.83,SE,141,0.4,3.4,70,0.00,BKN,BKN,0.14,0.0,WeatherDisplay:10.37,2013-05-21 04:06:00,
2013-05-20 22:11:00,51.0,41.6,29.83,SE,141,0.0,3.4,70,0.00,BKN,BKN,0.14,0.0,WeatherDisplay:10.37,2013-05-21 04:11:00,
2013-05-20 22:16:00,50.9,41.5,29.83,SE,141,0.0,3.4,70,0.00,BKN,BKN,0.14,0.0,WeatherDisplay:10.37,2013-05-21 04:16:00,
2013-05-20 22:21:00,50.9,41.5,29.83,SE,141,3.1,3.4,70,0.00,BKN,BKN,0.14,0.0,WeatherDisplay:10.37,2013-05-21 04:21:00,
2013-05-20 22:26:00,50.8,41.4,29.82,SE,141,1.7,3.0,70,0.00,BKN,BKN,0.14,0.0,WeatherDisplay:10.37,2013-05-21 04:26:00,
2013-05-20 22:31:00,50.8,41.4,29.83,SE,141,2.4,4.6,70,0.00,BKN,BKN,0.14,0.0,WeatherDisplay:10.37,2013-05-21 04:31:00,
2013-05-20 22:36:00,50.8,41.4,29.83,SE,141,1.4,1.4,70,0.00,BKN,BKN,0.14,0.0,WeatherDisplay:10.37,2013-05-21 04:36:00,
2013-05-20 22:41:00,50.7,41.3,29.83,SE,144,2.0,3.4,70,0.00,BKN,BKN,0.14,0.0,WeatherDisplay:10.37,2013-05-21 04:41:00,
2013-05-20 22:46:00,50.6,41.2,29.82,SE,144,0.0,2.3,70,0.00,BKN,BKN,0.14,0.0,WeatherDisplay:10.37,2013-05-21 04:46:00,
2013-05-20 22:51:00,50.5,41.1,29.82,SE,144,1.6,3.4,70,0.00,BKN,BKN,0.14,0.0,WeatherDisplay:10.37,2013-05-21 04:51:00,
2013-05-20 22:56:00,50.4,41.0,29.83,SE,144,0.4,1.1,70,0.00,BKN,BKN,0.14,0.0,WeatherDisplay:10.37,2013-05-21 04:56:00,
2013-05-20 23:01:00,50.3,40.9,29.84,SSE,153,1.3,6.9,70,0.00,OVC,OVC,0.14,0.0,WeatherDisplay:10.37,2013-05-21 05:01:00,
2013-05-20 23:06:00,50.1,40.7,29.83,SSE,154,0.0,1.1,70,0.00,OVC,OVC,0.14,0.0,WeatherDisplay:10.37,2013-05-21 05:06:00,
2013-05-20 23:11:00,50.0,40.6,29.82,SSE,153,0.1,2.3,70,0.00,OVC,OVC,0.14,0.0,WeatherDisplay:10.37,2013-05-21 05:11:00,
2013-05-20 23:16:00,49.9,40.5,29.82,SSE,153,0.0,0.0,70,0.00,OVC,OVC,0.14,0.0,WeatherDisplay:10.37,2013-05-21 05:16:00,
2013-05-20 23:21:00,49.8,40.8,29.82,SSE,154,0.9,1.1,71,0.00,OVC,OVC,0.14,0.0,WeatherDisplay:10.37,2013-05-21 05:21:00,
2013-05-20 23:26:00,49.7,40.7,29.82,SSE,154,0.0,0.0,71,0.00,OVC,OVC,0.14,0.0,WeatherDisplay:10.37,2013-05-21 05:26:00,
2013-05-20 23:31:00,49.6,40.6,29.82,SSE,154,0.3,1.1,71,0.00,OVC,OVC,0.14,0.0,WeatherDisplay:10.37,2013-05-21 05:31:00,
2013-05-20 23:36:00,49.4,40.4,29.82,SSE,153,0.7,2.3,71,0.00,OVC,OVC,0.14,0.0,WeatherDisplay:10.37,2013-05-21 05:36:00,
2013-05-20 23:41:00,49.2,40.6,29.82,SSE,154,0.0,0.0,72,0.00,OVC,OVC,0.14,0.0,WeatherDisplay:10.37,2013-05-21 05:41:00,
2013-05-20 23:46:00,49.1,40.5,29.82,SSE,154,0.0,0.0,72,0.00,OVC,OVC,0.14,0.0,WeatherDisplay:10.37,2013-05-21 05:46:00,
2013-05-20 23:51:00,49.0,40.4,29.82,SSE,153,0.0,0.0,72,0.00,OVC,OVC,0.14,0.0,WeatherDisplay:10.37,2013-05-21 05:51:00,
2013-05-20 23:56:00,48.8,40.2,29.82,SSE,154,0.0,0.0,72,0.00,OVC,OVC,0.14,0.0,WeatherDisplay:10.37,2013-05-21 05:56:00,